Showing default

USA 77, 21809

Orbit data source: Space-Track

USA 77, 21809 is an American payload satellite in LEO that was launched on Fri, 08 Nov 1991 UTC via a TITAN 403A launch vehicle from the Air Force Western Test Range (AFWTR). Payloads include a variety of satellites, spacecraft, and rockets equipped with specific instruments for various scientific and technological missions. These include communications satellites like Starlink; space stations such as the ISS; scientific satellites like the Hubble; Earth observation satellites from companies like Planet Labs, Umbra, and HawkEye 360; GPS; miniature CubeSats for education and research; and military/defense satellites.

Loading next visibility...
USA 77 details
Identifier
21809, 1991-076E
Orbit
LEO
Last TLE update9 hours ago
Origin
Flag of USNRO/NRL (US)
ManufacturerNRL
MissionDefense Sigint
Bus & MotorNOSS B SSU, Unknown motor
Mass~400 kg wet, ~400 kg dry
Launch date (UTC)
1991-11-08 (33 years ago)
Launch vehicle
TITAN 403A
Launch site
Air Force Western Test Range (AFWTR)
Object type
Payload
Rocket body
Debris
Shape & HBRCyl, 1 m
Radar Cross Section1.178 m², Large (>1 m²)

Expand to show TLE details & history

TLE from 9 hours ago
0 USA 77
1 21809U 91076E   24361.16422938  .00004041  00000-0  38370-3 0  9997
2 21809  63.3010 148.6438 0901337  64.5571 304.5925 13.51373569 31410
Epoch: 2024-12-26T03:56Z
Definitive object data (Epoch: 2024-12-26T03:56:29.418Z)
Latitude-0.00006°
Longitude-5.62636°
Altitude732.119 km
Speed7.657 km/s
True Right ascension09h 54m 34s
True Declination0° 00' 00"
Sunlit
Object was in full shadow at TLE epoch
Visualization TLE readout
Latitude41.59074°
Longitude19.72118°
Altitude424.714 km
Speed7.987 km/s
Apparent Right ascension06h 42m 36s
Apparent Declination22° 00' 53"
Sunlit
Object is in full shadow
Visualization observer readout
Local Sidereal Time12:23:10
Azimuth284.396° WNW
Elevation17.503°
Doppler factor1
Orbital elements
Apogee altitude1,737.004 km
Perigee altitude395.062 km
Semi-major axis7,444.17 km
Eccentricity0.0901337
Inclination63.301°
RAAN148.6438°
Arg. of periapsis64.5571°
True anomaly295.54859°
Mean anomaly304.5925°
Eccentric anomaly300.12578°
Mean motion3.37924 °/min
BSTAR0.0003837
Orbital period106.53 mins
Loading maneuver chart data...
Loading historical data...
Loading historical data...
Loading historical data...
Loading historical data...
Loading historical data...
Loading historical data...
Loading historical data...

USA 77 Visibility forecast

Observer location: undefined°, undefined

Span
Click to sort rows by Start time (UTC) header in descending order
Start Az.
Max El. time (UTC)
Max El. Az.
Max El.
End time (UTC)
End Az.
8 mins2024-12-26 20:26:33.402Z337.692° N2024-12-26 20:29:33.402Z79.722° E42.469°2024-12-26 20:34:33.402Z137.598° SSE
5 mins2024-12-26 22:17:33.402Z262.583° W2024-12-26 22:19:33.402Z237.781° WSW16.037°2024-12-26 22:22:33.402Z209.577° SW
5 mins2024-12-27 12:04:33.402Z228.305° WSW2024-12-27 12:06:33.402Z294.803° NW41.229°2024-12-27 12:09:33.402Z26.788° NE
|